Location: Lixville
(37.5770°N, 89.9118°W)
Time: 15:06:14
(UTC+00:00)

Courier 1B Rocket - Pass Details

Date: 08 November 2024
Orbit: 920 x 1201 km, 28.2° (Epoch: 02 December)

Event Time Altitude Azimuth Distance (km) Brightness Sun altitude
Rises 00:15:26 0° 239° (WSW) 3,581 9.2 -16.3°
Reaches altitude 10° 00:18:22 10° 228° (SW) 2,617 8.1 -16.9°
Maximum altitude 00:23:43 30° 169° (S) 1,571 6.0 -17.9°
Enters shadow 00:26:48 20° 125° (SE) 1,981 6.2 -18.5°
